Rolla, ND

9:15 AM CDT on May 27, 2018 (GMT -0500)
Rolla

Weather History for K06D - February, 2014

Change the Weather History Date:

Tuesday, February 25, 2014

  Actual Average (KRUG) Record (KRUG)
Temperature  
Mean Temperature -8 °F -  
Max Temperature -2 °F 29 °F 60 °F (1958)
Min Temperature -13 °F 8 °F -22 °F (1950)
Degree Days  
Heating Degree Days 72    
Moisture  
Dew Point -16 °F    
Average Humidity 65    
Maximum Humidity 77    
Minimum Humidity 46    
Precipitation  
Precipitation 0.00 in - - ()
Sea Level Pressure  
Sea Level Pressure 30.26 in    
Wind  
Wind Speed 17 mph (NW)    
Max Wind Speed 25 mph    
Max Gust Speed 31 mph    
Visibility 10 miles    
Events Rain , Snow    
Averages and records for this station are not official NWS values.
T = Trace of Precipitation, MM = Missing Value Source: NWS Daily Summary

Daily Weather History Graph

Daily Weather History Graph

Search for Another Location

Airport or City:

Astronomy

Feb. 25, 2014 Rise Set
Actual Time 7:28 AM CST 6:15 PM CST
Civil Twilight 6:56 AM CST 6:47 PM CST
Nautical Twilight 6:19 AM CST 7:24 PM CST
Astronomical Twilight 5:43 AM CST 8:00 PM CST
Moon 4:39 AM CST (2/25) 2:09 PM CST (2/25)
Length of Visible Light 11h 51m
Length of Day
10h 47m
Waning Crescent, 18% of the Moon is Illuminated
Feb 25
Waning Crescent
Mar 1
New
Mar 8
First Quarter
Mar 16
Full
Mar 23
Last Quarter

Hourly Weather History & Observations

Time (CST) Temp. Windchill Dew Point Humidity Pressure Visibility Wind Dir Wind Speed Gust Speed Precip Events Conditions
12:15 AM -7.6 °F -30.5 °F -16.6 °F 65% 30.20 in 10.0 mi West 17.3 mph - N/A   Clear
12:35 AM -7.6 °F -27.5 °F -16.6 °F 65% 30.20 in 10.0 mi WNW 12.7 mph - N/A   Clear
12:55 AM -7.6 °F -28.3 °F -16.6 °F 65% 30.20 in 10.0 mi WNW 13.8 mph - N/A   Clear
1:15 AM -7.6 °F -27.5 °F -16.6 °F 65% 30.19 in 10.0 mi WNW 12.7 mph - N/A   Clear
1:35 AM -7.6 °F -25.7 °F -16.6 °F 65% 30.19 in 10.0 mi WNW 10.4 mph - N/A   Clear
1:55 AM -7.6 °F -25.7 °F -16.6 °F 65% 30.19 in 10.0 mi WNW 10.4 mph - N/A   Clear
2:15 AM -7.6 °F -26.6 °F -14.8 °F 71% 30.19 in 10.0 mi WNW 11.5 mph - N/A   Clear
2:35 AM -7.6 °F -29.8 °F -14.8 °F 71% 30.19 in 10.0 mi NW 16.1 mph - N/A   Clear
2:55 AM -7.6 °F -30.5 °F -14.8 °F 71% 30.18 in 10.0 mi NW 17.3 mph - N/A   Clear
3:15 AM -7.6 °F -32.3 °F -14.8 °F 71% 30.18 in 10.0 mi NW 20.7 mph 25.3 mph N/A   Clear
3:35 AM -7.6 °F -31.7 °F -14.8 °F 71% 30.18 in 10.0 mi NW 19.6 mph 24.2 mph N/A   Clear
3:55 AM -7.6 °F -32.9 °F -14.8 °F 71% 30.18 in 10.0 mi NW 21.9 mph - N/A   Clear
4:15 AM -7.6 °F -32.3 °F -16.6 °F 65% 30.18 in 10.0 mi NW 20.7 mph 26.5 mph N/A   Clear
4:35 AM -9.4 °F -36.3 °F -16.6 °F 71% 30.18 in 10.0 mi NW 24.2 mph 29.9 mph N/A Snow Light Snow
4:55 AM -9.4 °F -35.8 °F -16.6 °F 71% 30.19 in 10.0 mi NNW 23.0 mph - N/A   Clear
5:15 AM -9.4 °F -36.8 °F -16.6 °F 71% 30.20 in 10.0 mi NNW 25.3 mph - N/A   Clear
5:35 AM -9.4 °F -36.3 °F -16.6 °F 71% 30.21 in 10.0 mi NNW 24.2 mph 31.1 mph N/A Snow Light Snow
5:55 AM -11.2 °F -37.6 °F -16.6 °F 77% 30.22 in 10.0 mi NNW 21.9 mph - N/A   Clear
6:15 AM -11.2 °F -37.0 °F -18.4 °F 70% 30.23 in 10.0 mi NNW 20.7 mph - N/A   Partly Cloudy
6:35 AM -11.2 °F -36.4 °F -18.4 °F 70% 30.24 in 10.0 mi NW 19.6 mph 26.5 mph N/A   Scattered Clouds
6:55 AM - - - N/A% 30.24 in 10.0 mi NW 17.3 mph - N/A   Mostly Cloudy
7:15 AM -13.0 °F -37.5 °F -18.4 °F 77% 30.26 in 10.0 mi NW 17.3 mph - N/A Snow Light Snow
7:35 AM -13.0 °F -38.8 °F -18.4 °F 77% 30.27 in 10.0 mi NW 19.6 mph - N/A Snow Light Snow
7:55 AM -11.2 °F -35.2 °F -18.4 °F 70% 30.28 in 10.0 mi NW 17.3 mph - N/A   Mostly Cloudy
8:15 AM -11.2 °F -35.8 °F -18.4 °F 70% 30.29 in 4.0 mi NW 18.4 mph - N/A Rain Light Freezing Rain
8:35 AM -11.2 °F -35.2 °F -18.4 °F 70% 30.30 in 8.0 mi NNW 17.3 mph - N/A   Scattered Clouds
8:55 AM -11.2 °F -35.2 °F -18.4 °F 70% 30.31 in 6.0 mi NNW 17.3 mph - N/A   Haze
9:15 AM -11.2 °F -35.8 °F -18.4 °F 70% 30.32 in 5.0 mi NNW 18.4 mph - N/A   Haze
9:35 AM -11.2 °F -36.4 °F -16.6 °F 77% 30.33 in 8.0 mi NNW 19.6 mph - N/A   Mostly Cloudy
9:55 AM -9.4 °F -33.5 °F -16.6 °F 71% 30.33 in 5.0 mi NNW 18.4 mph 24.2 mph N/A Snow Light Snow
10:15 AM -9.4 °F -33.5 °F -16.6 °F 71% 30.34 in 10.0 mi NNW 18.4 mph - N/A   Mostly Cloudy
10:35 AM -9.4 °F -34.1 °F -16.6 °F 71% 30.35 in 10.0 mi NNW 19.6 mph - N/A   Mostly Cloudy
10:55 AM -7.6 °F -31.7 °F -14.8 °F 71% 30.35 in 10.0 mi NNW 19.6 mph - N/A   Mostly Cloudy
11:15 AM -7.6 °F -31.7 °F -14.8 °F 71% 30.36 in 10.0 mi NNW 19.6 mph - N/A   Mostly Cloudy
11:35 AM -7.6 °F -31.1 °F -14.8 °F 71% 30.36 in 10.0 mi NNW 18.4 mph - N/A   Scattered Clouds
11:55 AM -7.6 °F -32.9 °F -13.0 °F 77% 30.37 in 10.0 mi NNW 21.9 mph 25.3 mph N/A   Scattered Clouds
12:15 PM -7.6 °F -33.4 °F -13.0 °F 77% 30.37 in 7.0 mi NW 23.0 mph - N/A Snow Light Snow
12:35 PM -5.8 °F -29.9 °F -13.0 °F 71% 30.37 in 8.0 mi NNW 20.7 mph 27.6 mph N/A Snow Light Snow
12:55 PM -5.8 °F -31.5 °F -13.0 °F 71% 30.37 in 5.0 mi NW 24.2 mph 31.1 mph N/A Snow Light Snow
1:15 PM -4.0 °F -28.6 °F -13.0 °F 65% 30.36 in 10.0 mi NNW 23.0 mph 29.9 mph N/A Snow Light Snow
1:35 PM -4.0 °F -28.6 °F -14.8 °F 60% 30.36 in 10.0 mi NNW 23.0 mph - N/A   Clear
1:55 PM -4.0 °F -27.6 °F -13.0 °F 65% 30.36 in 10.0 mi NW 20.7 mph - N/A   Clear
2:15 PM -4.0 °F -27.0 °F -14.8 °F 60% 30.36 in 10.0 mi NNW 19.6 mph - N/A   Clear
2:35 PM -2.2 °F -25.2 °F -14.8 °F 55% 30.35 in 10.0 mi NNW 20.7 mph - N/A   Clear
2:55 PM -2.2 °F -25.7 °F -16.6 °F 50% 30.35 in 10.0 mi NNW 21.9 mph - N/A   Clear
3:15 PM -2.2 °F -25.7 °F -14.8 °F 55% 30.35 in 10.0 mi NNW 21.9 mph - N/A   Clear
3:35 PM -2.2 °F -25.2 °F -16.6 °F 50% 30.34 in 10.0 mi NNW 20.7 mph - N/A   Clear
3:55 PM -2.2 °F -24.1 °F -16.6 °F 50% 30.34 in 10.0 mi NW 18.4 mph - N/A   Clear
4:15 PM -2.2 °F -23.5 °F -16.6 °F 50% 30.34 in 10.0 mi NW 17.3 mph - N/A   Clear
4:35 PM -2.2 °F -22.9 °F -16.6 °F 50% 30.33 in 10.0 mi NW 16.1 mph 23.0 mph N/A   Clear
4:55 PM -2.2 °F -20.7 °F -18.4 °F 46% 30.33 in 10.0 mi NW 12.7 mph - N/A   Clear
5:15 PM -2.2 °F -20.7 °F -18.4 °F 46% 30.32 in 10.0 mi WNW 12.7 mph - N/A   Clear
5:35 PM -2.2 °F -20.7 °F -18.4 °F 46% 30.32 in 10.0 mi NW 12.7 mph 16.1 mph N/A   Clear
5:55 PM -4.0 °F -23.7 °F -18.4 °F 50% 30.31 in 10.0 mi WNW 13.8 mph - N/A   Clear
6:15 PM -4.0 °F -22.1 °F -18.4 °F 50% 30.31 in 10.0 mi WNW 11.5 mph - N/A   Clear
6:35 PM -7.6 °F -23.4 °F -18.4 °F 59% 30.30 in 10.0 mi West 8.1 mph - N/A   Clear
6:55 PM -7.6 °F -24.6 °F -18.4 °F 59% 30.29 in 10.0 mi West 9.2 mph - N/A   Clear
7:15 PM -7.6 °F -26.6 °F -18.4 °F 59% 30.29 in 10.0 mi West 11.5 mph - N/A   Clear
7:35 PM -7.6 °F -27.5 °F -18.4 °F 59% 30.27 in 10.0 mi West 12.7 mph - N/A   Clear
7:55 PM -9.4 °F -28.9 °F -18.4 °F 65% 30.26 in 10.0 mi WSW 11.5 mph - N/A   Clear
8:15 PM -9.4 °F -27.9 °F -18.4 °F 65% 30.25 in 10.0 mi WSW 10.4 mph - N/A   Clear
8:35 PM -9.4 °F -24.3 °F -18.4 °F 65% 30.24 in 10.0 mi WSW 6.9 mph - N/A   Clear
8:55 PM -11.2 °F -26.4 °F -18.4 °F 70% 30.23 in 10.0 mi WSW 6.9 mph - N/A   Clear
9:15 PM -7.6 °F -25.7 °F -18.4 °F 59% 30.21 in 10.0 mi WSW 10.4 mph - N/A   Clear
9:35 PM -7.6 °F -25.7 °F -18.4 °F 59% 30.20 in 10.0 mi West 10.4 mph - N/A   Partly Cloudy
9:55 PM -7.6 °F -28.3 °F -16.6 °F 65% 30.19 in 10.0 mi West 13.8 mph 17.3 mph N/A   Scattered Clouds
10:15 PM -7.6 °F -31.1 °F -16.6 °F 65% 30.17 in 10.0 mi West 18.4 mph - N/A   Mostly Cloudy
10:35 PM -7.6 °F -29.1 °F -14.8 °F 71% 30.15 in 10.0 mi West 15.0 mph 25.3 mph N/A   Mostly Cloudy
10:55 PM -5.8 °F -25.2 °F -13.0 °F 71% 30.14 in 10.0 mi West 12.7 mph - N/A   Overcast
11:15 PM -4.0 °F -24.5 °F -13.0 °F 65% 30.12 in 10.0 mi West 15.0 mph - N/A   Overcast
11:35 PM -4.0 °F -23.0 °F -13.0 °F 65% 30.10 in 10.0 mi WSW 12.7 mph 17.3 mph N/A   Overcast
11:55 PM -2.2 °F -23.5 °F - N/A% 30.08 in 10.0 mi West 17.3 mph 24.2 mph N/A   Overcast